Dewpoint
49 49 48 49 46 48 46 45 46 45 46 47 49 48 49 50 50 49 49 48 48 49
48 48 47 47 47 47 47 46 46 46 47 46 45 45 47 47 47 47 46 47 46 47
46 46 46 47 46 45 46 46 47 46 46 47 47 48 48 47 45 43 44 45 45 46
45 44 46 44 46 46 47 46 46 45 45 45 45 45 43 42 42 41 41 42 43 46
44 45 46 46 45 46 46 45 46 45 45 45 43 42 40 39 40 40 40 40 43 45
46 48 46 46 46 45 44 44 46 45 45 42 42 39 38 37 39 39 40 41 45 46
45 45 46 47 43 42 44 45 44 45 45 43 41 40 39 38 39 39 40 43 45 44
44 46 44 44 46 45 44 45 45 45 45 42 40 39 39 38 40 39 40 43 43 43
44 44 43 44 45 45 46 44 45 45 45 42 41 42 43 42 39 38 40 41 41 42
42 42 43 43 44 45 44 45 45 45 45 44 42 44 43 43 39 38 41 41 40 40
42 42 42 42 45 43 45 45 44 45 45 45 43 45 42 42 38 40 41 41 40 38
42 42 42 41 43 42 44 44 44 44 44 43 45 42 40 39 39 39 38 37 38 39
42 43 41 42 42 43 43 43 44 44 44 44 41 41 40 39 38 37 37 37 37 40
43 42 40 41 41 42 43 44 44 41 43 42 41 39 39 39 37 36 37 35 36 36
Lifted_Index
7 8 9 10 10 11 12 12 12 12 11 11 11 11 11 11 10 10 10 10 10 10
7 7 8 10 11 11 12 11 11 11 11 11 11 11 11 11 11 10 10 10 11 11
7 8 9 11 11 12 12 11 11 11 11 11 11 11 11 11 11 11 11 11 11 11
8 10 11 11 11 11 11 11 11 11 11 11 11 12 12 12 12 12 12 12 12 12
10 10 11 11 11 11 11 11 11 11 11 11 12 12 13 13 13 13 13 13 12 12
10 10 10 10 10 11 11 11 11 11 11 11 12 12 13 14 14 14 13 12 12 12
10 10 10 10 10 11 11 11 11 11 11 11 12 12 13 13 13 13 13 12 12 12
10 11 11 11 10 10 10 10 10 11 11 11 11 12 12 13 13 13 12 12 12 12
11 11 11 11 10 10 10 10 10 10 10 10 11 11 12 12 12 12 13 13 13 13
11 11 11 11 11 10 10 10 10 10 10 10 10 11 11 11 12 12 13 13 13 13
11 11 11 11 11 11 10 10 10 10 10 10 10 10 11 11 12 12 13 13 14 14
11 11 11 11 11 11 10 10 10 10 10 10 10 10 11 11 12 12 12 13 14 15
11 11 11 11 10 10 10 10 10 11 10 10 11 11 12 12 12 11 12 12 14 14
11 11 11 10 10 10 10 10 11 11 11 11 11 12 12 12 12 11 11 12 13 14